Location: Springfield
(37.2150°N, 93.2980°W)
Time: 06:36:45
(UTC-05:00)

BREEZE-M DEB (TANK) - Pass Details

Date: 19 April 2018
Orbit: 323 x 16442 km, 49.5° (Epoch: 26 May)

Event Time Altitude Azimuth Distance (km) Brightness Sun altitude
Rises 23:07:38 0° 299° (WNW) 13,263 10.2 -33.2°
Reaches altitude 10° 23:22:40 10° 302° (WNW) 9,042 9.1 -34.9°
Enters shadow 23:43:53 74° 16° (NNE) 1,467 4.3 -37.1°
